ラッセル-リニア彗星

156P/Russell-LINEAR (2000)

English version
Home page
Updated on April 21, 2003

---------------------------------------------------------------------

・ プロフィール

符号 156P/2000 QD181
発見日 2000年8月31日
発見光度
発見者 Lincoln Laboratory Near-Earth Asteroid Research project

・ 軌道要素

                    Epoch = 2000 Aug.  4.0 TT
     T = 2000 Aug. 17.6199 TT         Peri. = 357.7420
     e = 0.557054                     Node  =  39.0471  2000.0
     q = 1.596837 AU                  Incl. =  20.7496
       a =  3.605034 AU    n = 0.1439926    P =   6.845 years

・ 星図

・ 光度変化

        m1 = 15.8 + 5 logΔ + 5.0 log r

---------------------------------------------------------------------

軌道要素はIAUC 8118に掲載されたものです。
星図は StellaNavigator Ver.2.0 for Windows (アストロアーツ 編著 / アスキー出版局刊) で作成したものです。
光度グラフはComet for Windowsで作成したものです。

---------------------------------------------------------------------

Copyright(C) Seiichi Yoshida (comet@aerith.net). All rights reserved.